[[{"header":{"parameterUnit":"m.s-1","parameterCategory":1,"la1":30.2992,"la2":30.254,"lo1":-89.0895,"lo2":-89.0443,"dy":0.0025,"dx":0.0025,"nx":19,"ny":19,"refTime":"2026-05-24T03:00:00:Z","depth":0,"parameterNumber":2,"parameterNumberName":"U-component_of_WINDS"},"data":[0,0,0,-6.4883,-6.489,-6.5234,-6.5235,-6.5678,-6.5682,0,0,0,0,0,0,0,0,0,0,0,-6.4786,-6.479,-6.4882,-6.4891,-6.5234,-6.5235,-6.5677,-6.5682,0,0,0,0,0,0,0,0,0,0,0,-6.4785,-6.4789,-6.4793,-6.4892,-6.5234,-6.5235,-6.5676,-6.5415,0,0,0,0,0,0,0,0,0,0,-6.5081,-6.4998,-6.4788,-6.4793,-6.4894,-6.5233,-6.5235,-6.5402,-6.5431,-6.5524,0,-6.5611,0,-6.5654,-6.5712,-6.5713,0,0,0,-6.4886,-6.4974,-6.5062,-6.4793,-6.4898,-6.5233,-6.5078,-6.5418,-6.5451,-6.5563,-6.5618,-6.5634,-6.5661,-6.5715,-6.5717,-6.6275,-6.6278,0,0,-6.4867,-6.485,-6.5039,-6.5083,-6.5034,-6.5067,-6.5089,-6.5438,-6.5496,-6.5619,-6.5644,-6.5668,-6.5718,-6.5721,-6.6273,-6.6276,0,0,0,-6.4816,-6.4837,-6.4917,-6.5065,-6.5127,-6.5077,-6.5102,-6.548,-6.5507,-6.5649,-6.5674,-6.572,-6.5726,-6.627,-6.6274,-6.6396,0,0,0,-6.4804,-6.4807,-6.4909,-6.4902,-6.5121,-6.5309,-6.5136,-6.5483,-6.5523,-6.5671,-6.572,-6.573,-6.6266,-6.6272,-6.6386,-6.6456,0,0,0,-6.4762,-6.4802,-6.4854,-6.49,-6.5047,-6.5303,-6.5351,-6.5492,-6.5539,-6.5714,-6.5731,-6.6264,-6.6271,-6.6377,-6.6442,-6.6597,0,0,0,-6.4711,-6.4958,-6.4856,-6.5141,-6.5044,-6.5378,-6.5349,-6.5598,-6.5762,-6.5723,-6.6267,-6.6273,-6.6375,-6.6433,-6.6587,-6.6723,-6.6779,0,0,-6.5013,-6.4994,-6.5163,-6.5081,-6.5429,-6.5327,-6.5692,-6.5858,-6.5889,-6.6144,-6.6158,-6.6389,-6.6441,-6.6595,-6.71,-6.7144,0,0,0,-6.5252,-6.5373,-6.5469,-6.5626,-6.576,-6.588,-6.5992,-6.6053,-6.6271,-6.6017,-6.6489,-6.652,-6.6611,-6.6676,-6.6714,-6.6792,-6.6304,-6.6303,-6.6302,-6.5654,-6.5682,-6.5962,-6.6031,-6.6183,-6.6297,-6.6421,-6.6522,-6.6506,-6.6616,-6.6692,-6.6995,-6.7071,-6.71,-6.7181,-6.6767,-6.6768,-6.6768,-6.6769,-6.6096,-6.627,-6.6243,-6.6505,-6.6532,-6.6751,-6.6869,-6.6849,-6.7055,-6.6941,-6.7023,-6.6893,-6.7147,-6.7219,-6.6778,-6.6777,-6.6775,-6.6774,-6.6774,-6.636,-6.6448,-6.652,-6.6749,-6.6921,-6.6982,-6.7181,-6.7198,-6.7216,-6.7297,-6.7376,-6.7374,-6.7372,-6.7334,-6.7335,-6.7336,-6.7337,-6.7338,-6.7338,-6.6605,-6.6682,-6.6849,-6.7011,-6.7113,-6.725,-6.7365,-6.7465,-6.758,-6.7576,-6.7577,-6.7547,-6.7168,-6.7071,-6.7355,-6.7352,-6.735,-6.7348,-6.7347,-6.704,-6.6944,-6.7202,-6.7305,-6.7495,-6.7664,-6.7684,-6.7886,-6.7971,-6.8068,-6.8022,-6.7739,-6.772,-6.769,-6.761,-6.8016,-6.8016,-6.8016,-6.8016,-6.7261,-6.7253,-6.752,-6.7682,-6.7843,-6.7887,-6.8174,-6.8265,-6.8344,-6.8397,-6.8342,-6.8237,-6.8206,-6.8205,-6.8164,-6.809,-6.8609,-6.861,-6.861,-6.7528,-6.7537,-6.7779,-6.7857,-6.8008,-6.8135,-6.8405,-6.8589,-6.8658,-6.8634,-6.8439,-6.8414,-6.8246,-6.819,-6.8159,-6.8096,-6.7959,0,0]},{"header":{"parameterUnit":"m.s-1","parameterCategory":1,"la1":30.2992,"la2":30.254,"lo1":-89.0895,"lo2":-89.0443,"dy":0.0025,"dx":0.0025,"nx":19,"ny":19,"refTime":"2026-05-24T03:00:00:Z","depth":0,"parameterNumber":3,"parameterNumberName":"V-component_of_WINDS"},"data":[0,0,0,0.8301,0.8304,0.8442,0.8443,0.8606,0.8608,0,0,0,0,0,0,0,0,0,0,0,0.8247,0.8247,0.8301,0.8304,0.8442,0.8443,0.8606,0.8608,0,0,0,0,0,0,0,0,0,0,0,0.8247,0.8247,0.8248,0.8305,0.8442,0.8443,0.8606,0.8508,0,0,0,0,0,0,0,0,0,0,0.8376,0.8311,0.8247,0.8248,0.8305,0.8442,0.8443,0.8503,0.8514,0.8536,0,0.8548,0,0.858,0.8617,0.8618,0,0,0,0.8315,0.8302,0.8351,0.8248,0.8306,0.8442,0.8383,0.8509,0.8521,0.855,0.8551,0.8557,0.8583,0.8618,0.8619,0.8702,0.8702,0,0,0.8308,0.8265,0.8343,0.8358,0.833,0.8379,0.8387,0.8517,0.8516,0.8551,0.8562,0.8586,0.8619,0.862,0.8702,0.8702,0,0,0,0.8278,0.826,0.8306,0.8351,0.8377,0.8382,0.8392,0.8511,0.8529,0.8564,0.8587,0.862,0.8622,0.8702,0.8702,0.8652,0,0,0,0.8274,0.8242,0.8302,0.8278,0.8374,0.8444,0.8383,0.852,0.8536,0.8587,0.862,0.8623,0.8703,0.8702,0.8654,0.8636,0,0,0,0.8243,0.8239,0.8254,0.8275,0.8333,0.8443,0.8469,0.8525,0.855,0.8618,0.8624,0.8703,0.8702,0.8656,0.8639,0.8645,0,0,0,0.8198,0.8209,0.8252,0.8275,0.8331,0.841,0.8469,0.8531,0.8583,0.8621,0.8703,0.8702,0.8656,0.864,0.8646,0.8642,0.8636,0,0,0.8188,0.8206,0.8223,0.8266,0.8326,0.8392,0.8448,0.8537,0.8585,0.8662,0.8664,0.8653,0.8639,0.8646,0.862,0.8614,0,0,0,0.8206,0.8218,0.8243,0.8288,0.8355,0.8413,0.8498,0.8533,0.8599,0.8614,0.866,0.8652,0.8658,0.8658,0.8654,0.8662,0.87,0.87,0.87,0.8132,0.819,0.8223,0.8298,0.8342,0.8431,0.8474,0.8536,0.8583,0.8593,0.8616,0.8592,0.8591,0.8588,0.8596,0.8619,0.8619,0.8619,0.8619,0.8124,0.8149,0.8212,0.8265,0.8328,0.8377,0.8465,0.8497,0.8554,0.858,0.8588,0.861,0.858,0.8591,0.8616,0.8616,0.8617,0.8617,0.8617,0.808,0.8102,0.8142,0.8216,0.8268,0.8347,0.8397,0.8455,0.851,0.8518,0.8549,0.855,0.8559,0.8529,0.8529,0.8529,0.8529,0.8529,0.8529,0.8018,0.8065,0.8098,0.8172,0.821,0.8268,0.8361,0.8402,0.8463,0.8501,0.8502,0.8549,0.8566,0.8568,0.8528,0.8528,0.8528,0.8528,0.8528,0.7986,0.8003,0.8054,0.8092,0.8185,0.8234,0.8308,0.8387,0.8431,0.8455,0.8502,0.8505,0.8528,0.8532,0.8535,0.8488,0.8488,0.8488,0.8488,0.7948,0.7966,0.8032,0.8089,0.8154,0.8226,0.8288,0.8362,0.8442,0.8474,0.849,0.8499,0.85,0.8523,0.8527,0.853,0.8483,0.8483,0.8483,0.7932,0.7958,0.7996,0.8071,0.8149,0.8217,0.8277,0.8346,0.8442,0.8485,0.85,0.85,0.8516,0.8517,0.8557,0.8562,0.8569,0,0]}]]